Time,TemperatureF,DewpointF,PressureIn,WindDirection,WindDirectionDegrees,WindSpeedMPH,WindSpeedGustMPH,Humidity,HourlyPrecipIn,Conditions,Clouds,dailyrainin,SoftwareType,DateUTC
2013-04-16 00:00:00,62.6,58.8,30.10,ENE,68,0.0,0.0,87,0.00,,,0.00,WUHU216HW,2013-04-16 04:00:00,
2013-04-16 00:05:00,62.6,58.8,30.10,ENE,68,0.0,0.0,87,0.00,,,0.00,WUHU216HW,2013-04-16 04:05:00,
2013-04-16 00:30:00,61.9,58.4,30.11,ENE,68,0.0,0.0,88,0.00,,,0.00,WUHU216HW,2013-04-16 04:30:00,
2013-04-16 00:35:00,61.9,58.4,30.11,ENE,68,0.0,0.0,88,0.00,,,0.00,WUHU216HW,2013-04-16 04:35:00,
2013-04-16 01:00:00,61.6,58.3,30.12,ENE,68,0.0,0.0,89,0.00,,,0.00,WUHU216HW,2013-04-16 05:00:00,
2013-04-16 01:05:00,61.6,58.3,30.12,ENE,68,0.0,0.0,89,0.00,,,0.00,WUHU216HW,2013-04-16 05:05:00,
2013-04-16 01:30:00,61.9,59.0,30.12,ENE,68,0.0,0.0,90,0.00,,,0.00,WUHU216HW,2013-04-16 05:30:00,
2013-04-16 01:35:00,61.9,59.0,30.12,ENE,68,0.0,0.0,90,0.00,,,0.00,WUHU216HW,2013-04-16 05:35:00,
2013-04-16 02:00:00,63.2,60.3,30.12,ENE,68,0.0,0.0,90,0.00,,,0.00,WUHU216HW,2013-04-16 06:00:00,
2013-04-16 02:05:00,63.2,60.3,30.12,ENE,68,0.0,0.0,90,0.00,,,0.00,WUHU216HW,2013-04-16 06:05:00,
2013-04-16 02:30:00,63.5,60.7,30.12,ENE,68,0.0,0.0,90,0.00,,,0.00,WUHU216HW,2013-04-16 06:30:00,
2013-04-16 02:35:00,63.5,60.7,30.12,ENE,68,0.0,0.0,90,0.00,,,0.00,WUHU216HW,2013-04-16 06:35:00,
2013-04-16 03:00:00,62.6,59.8,30.12,ENE,68,0.0,0.0,90,0.00,,,0.00,WUHU216HW,2013-04-16 07:00:00,
2013-04-16 05:30:00,59.9,57.6,30.12,ENE,68,0.0,0.0,92,0.00,,,0.00,WUHU216HW,2013-04-16 09:30:00,
2013-04-16 05:35:00,59.9,57.6,30.12,ENE,68,0.0,0.0,92,0.00,,,0.00,WUHU216HW,2013-04-16 09:35:00,
2013-04-16 06:00:00,59.4,57.1,30.12,ENE,68,0.0,0.0,92,0.00,,,0.00,WUHU216HW,2013-04-16 10:00:00,
2013-04-16 06:05:00,59.4,57.1,30.12,ENE,68,0.0,0.0,92,0.00,,,0.00,WUHU216HW,2013-04-16 10:05:00,
2013-04-16 06:30:00,59.0,56.7,30.12,South,180,0.0,0.0,92,0.00,,,0.00,WUHU216HW,2013-04-16 10:30:00,
2013-04-16 06:35:00,59.0,56.7,30.12,South,180,0.0,0.0,92,0.00,,,0.00,WUHU216HW,2013-04-16 10:35:00,
2013-04-16 07:00:00,59.2,56.9,30.13,SSE,158,0.0,0.0,92,0.00,,,0.00,WUHU216HW,2013-04-16 11:00:00,
2013-04-16 07:05:00,59.2,56.9,30.13,SSE,158,0.0,0.0,92,0.00,,,0.00,WUHU216HW,2013-04-16 11:05:00,
2013-04-16 08:00:00,59.2,57.3,30.17,WSW,248,0.0,0.0,93,0.00,,,0.00,WUHU216HW,2013-04-16 12:00:00,
2013-04-16 08:05:00,59.2,57.3,30.17,WSW,248,0.0,0.0,93,0.00,,,0.00,WUHU216HW,2013-04-16 12:05:00,
2013-04-16 08:30:00,61.6,59.6,30.18,SSE,158,0.0,0.0,93,0.00,,,0.00,WUHU216HW,2013-04-16 12:30:00,
2013-04-16 08:35:00,61.6,59.6,30.18,SSE,158,0.0,0.0,93,0.00,,,0.00,WUHU216HW,2013-04-16 12:35:00,
2013-04-16 09:00:00,63.9,61.6,30.18,ENE,68,0.0,0.0,92,0.00,,,0.00,WUHU216HW,2013-04-16 13:00:00,
2013-04-16 09:05:00,63.9,61.6,30.18,ENE,68,0.0,0.0,92,0.00,,,0.00,WUHU216HW,2013-04-16 13:05:00,
2013-04-16 09:30:00,66.6,62.9,30.19,North,0,0.2,0.2,88,0.00,,,0.00,WUHU216HW,2013-04-16 13:30:00,
2013-04-16 09:35:00,66.6,62.9,30.19,North,0,0.2,0.2,88,0.00,,,0.00,WUHU216HW,2013-04-16 13:35:00,
2013-04-16 10:00:00,69.1,62.7,30.20,WSW,248,0.0,0.0,80,0.00,,,0.00,WUHU216HW,2013-04-16 14:00:00,
2013-04-16 10:05:00,69.1,62.7,30.20,WSW,248,0.0,0.0,80,0.00,,,0.00,WUHU216HW,2013-04-16 14:05:00,
2013-04-16 10:30:00,71.5,63.8,30.20,SSW,203,0.4,0.4,77,0.00,,,0.00,WUHU216HW,2013-04-16 14:30:00,
2013-04-16 10:35:00,71.5,63.8,30.20,SSW,203,0.4,0.4,77,0.00,,,0.00,WUHU216HW,2013-04-16 14:35:00,
2013-04-16 11:00:00,77.4,65.6,30.20,SE,135,0.4,0.4,67,0.00,,,0.00,WUHU216HW,2013-04-16 15:00:00,
2013-04-16 11:05:00,77.4,65.6,30.20,SE,135,0.4,0.4,67,0.00,,,0.00,WUHU216HW,2013-04-16 15:05:00,
2013-04-16 11:30:00,82.4,66.1,30.20,NE,45,0.7,0.7,58,0.00,,,0.00,WUHU216HW,2013-04-16 15:30:00,
2013-04-16 11:35:00,82.4,66.1,30.20,NE,45,0.7,0.7,58,0.00,,,0.00,WUHU216HW,2013-04-16 15:35:00,
2013-04-16 12:00:00,83.7,64.7,30.20,East,90,0.0,0.0,53,0.00,,,0.00,WUHU216HW,2013-04-16 16:00:00,
2013-04-16 12:05:00,83.7,64.7,30.20,East,90,0.0,0.0,53,0.00,,,0.00,WUHU216HW,2013-04-16 16:05:00,
2013-04-16 12:30:00,82.8,63.4,30.19,NNW,338,0.7,0.7,52,0.00,,,0.00,WUHU216HW,2013-04-16 16:30:00,
2013-04-16 12:35:00,82.8,63.4,30.19,NNW,338,0.7,0.7,52,0.00,,,0.00,WUHU216HW,2013-04-16 16:35:00,
2013-04-16 13:00:00,85.9,64.5,30.18,NNE,23,1.3,1.3,49,0.00,,,0.00,WUHU216HW,2013-04-16 17:00:00,
2013-04-16 13:05:00,85.9,64.5,30.18,NNE,23,1.3,1.3,49,0.00,,,0.00,WUHU216HW,2013-04-16 17:05:00,
2013-04-16 13:30:00,85.7,63.7,30.18,ENE,68,1.1,1.1,48,0.00,,,0.00,WUHU216HW,2013-04-16 17:30:00,
2013-04-16 13:35:00,85.7,63.7,30.18,ENE,68,1.1,1.1,48,0.00,,,0.00,WUHU216HW,2013-04-16 17:35:00,
2013-04-16 14:00:00,86.6,62.6,30.17,NNE,23,0.4,0.4,45,0.00,,,0.00,WUHU216HW,2013-04-16 18:00:00,
2013-04-16 14:05:00,86.6,62.6,30.17,NNE,23,0.4,0.4,45,0.00,,,0.00,WUHU216HW,2013-04-16 18:05:00,
2013-04-16 14:30:00,90.4,64.1,30.15,North,0,0.4,0.4,42,0.00,,,0.00,WUHU216HW,2013-04-16 18:30:00,
2013-04-16 14:35:00,90.4,64.1,30.15,North,0,0.4,0.4,42,0.00,,,0.00,WUHU216HW,2013-04-16 18:35:00,
2013-04-16 15:00:00,89.5,63.9,30.14,ESE,113,0.7,0.7,43,0.00,,,0.00,WUHU216HW,2013-04-16 19:00:00,
2013-04-16 15:05:00,89.5,63.9,30.14,ESE,113,0.7,0.7,43,0.00,,,0.00,WUHU216HW,2013-04-16 19:05:00,
2013-04-16 15:30:00,90.5,62.9,30.13,SW,225,0.4,0.4,40,0.00,,,0.00,WUHU216HW,2013-04-16 19:30:00,
2013-04-16 15:35:00,90.5,62.9,30.13,SW,225,0.4,0.4,40,0.00,,,0.00,WUHU216HW,2013-04-16 19:35:00,
2013-04-16 16:00:00,92.2,63.5,30.12,East,90,0.4,0.4,39,0.00,,,0.00,WUHU216HW,2013-04-16 20:00:00,
2013-04-16 16:05:00,92.2,63.5,30.12,East,90,0.4,0.4,39,0.00,,,0.00,WUHU216HW,2013-04-16 20:05:00,
2013-04-16 16:30:00,91.8,63.3,30.12,East,90,0.4,0.4,39,0.00,,,0.00,WUHU216HW,2013-04-16 20:30:00,
2013-04-16 16:35:00,91.8,63.3,30.12,East,90,0.4,0.4,39,0.00,,,0.00,WUHU216HW,2013-04-16 20:35:00,
2013-04-16 17:00:00,89.5,61.9,30.11,ENE,68,0.4,0.4,40,0.00,,,0.00,WUHU216HW,2013-04-16 21:00:00,
2013-04-16 17:05:00,89.5,61.9,30.11,ENE,68,0.4,0.4,40,0.00,,,0.00,WUHU216HW,2013-04-16 21:05:00,
2013-04-16 17:30:00,83.7,59.4,30.11,WSW,248,0.0,0.0,44,0.00,,,0.00,WUHU216HW,2013-04-16 21:30:00,
2013-04-16 17:35:00,83.7,59.4,30.11,WSW,248,0.0,0.0,44,0.00,,,0.00,WUHU216HW,2013-04-16 21:35:00,
2013-04-16 18:00:00,81.4,59.8,30.11,West,270,0.0,0.0,48,0.00,,,0.00,WUHU216HW,2013-04-16 22:00:00,
2013-04-16 18:05:00,81.4,59.8,30.11,West,270,0.0,0.0,48,0.00,,,0.00,WUHU216HW,2013-04-16 22:05:00,
2013-04-16 18:30:00,80.6,59.7,30.11,West,270,0.0,0.0,49,0.00,,,0.00,WUHU216HW,2013-04-16 22:30:00,
2013-04-16 18:35:00,80.6,59.7,30.11,West,270,0.0,0.0,49,0.00,,,0.00,WUHU216HW,2013-04-16 22:35:00,
2013-04-16 19:00:00,79.4,59.1,30.11,NE,45,0.0,0.0,50,0.00,,,0.00,WUHU216HW,2013-04-16 23:00:00,
2013-04-16 19:05:00,79.4,59.1,30.11,NE,45,0.0,0.0,50,0.00,,,0.00,WUHU216HW,2013-04-16 23:05:00,
2013-04-16 19:30:00,78.1,59.0,30.11,East,90,0.2,0.2,52,0.00,,,0.00,WUHU216HW,2013-04-16 23:30:00,
2013-04-16 19:35:00,78.1,59.0,30.11,East,90,0.2,0.2,52,0.00,,,0.00,WUHU216HW,2013-04-16 23:35:00,
2013-04-16 20:00:00,76.3,59.0,30.12,SSW,203,0.0,0.0,55,0.00,,,0.00,WUHU216HW,2013-04-17 00:00:00,
2013-04-16 20:05:00,76.3,59.0,30.12,SSW,203,0.0,0.0,55,0.00,,,0.00,WUHU216HW,2013-04-17 00:05:00,
2013-04-16 20:30:00,74.2,58.9,30.13,WSW,248,0.0,0.0,59,0.00,,,0.00,WUHU216HW,2013-04-17 00:30:00,
2013-04-16 20:35:00,74.2,58.9,30.13,WSW,248,0.0,0.0,59,0.00,,,0.00,WUHU216HW,2013-04-17 00:35:00,
2013-04-16 21:00:00,73.1,59.2,30.14,WSW,248,0.0,0.0,62,0.00,,,0.00,WUHU216HW,2013-04-17 01:00:00,
2013-04-16 21:05:00,73.1,59.2,30.14,WSW,248,0.0,0.0,62,0.00,,,0.00,WUHU216HW,2013-04-17 01:05:00,
2013-04-16 21:30:00,72.0,59.6,30.15,SW,225,0.0,0.0,65,0.00,,,0.00,WUHU216HW,2013-04-17 01:30:00,
2013-04-16 21:35:00,72.0,59.6,30.15,SW,225,0.0,0.0,65,0.00,,,0.00,WUHU216HW,2013-04-17 01:35:00,
2013-04-16 22:00:00,70.9,59.4,30.15,SSE,158,0.0,0.0,67,0.00,,,0.00,WUHU216HW,2013-04-17 02:00:00,
2013-04-16 22:05:00,70.9,59.4,30.15,SSE,158,0.0,0.0,67,0.00,,,0.00,WUHU216HW,2013-04-17 02:05:00,
2013-04-16 22:30:00,70.4,59.7,30.15,SSE,158,0.0,0.0,69,0.00,,,0.00,WUHU216HW,2013-04-17 02:30:00,
2013-04-16 22:35:00,70.4,59.7,30.15,SSE,158,0.0,0.0,69,0.00,,,0.00,WUHU216HW,2013-04-17 02:35:00,
2013-04-16 23:00:00,69.5,59.2,30.15,NE,45,0.0,0.0,70,0.00,,,0.00,WUHU216HW,2013-04-17 03:00:00,
2013-04-16 23:05:00,69.5,59.2,30.15,NE,45,0.0,0.0,70,0.00,,,0.00,WUHU216HW,2013-04-17 03:05:00,
2013-04-16 23:30:00,68.4,59.0,30.15,ENE,68,0.0,0.0,72,0.00,,,0.00,WUHU216HW,2013-04-17 03:30:00,
2013-04-16 23:35:00,68.4,59.0,30.15,ENE,68,0.0,0.0,72,0.00,,,0.00,WUHU216HW,2013-04-17 03:35:00,